Time,TemperatureF,DewpointF,PressureIn,WindDirection,WindDirectionDegrees,WindSpeedMPH,WindSpeedGustMPH,Humidity,HourlyPrecipIn,Conditions,Clouds,dailyrainin,SoftwareType,DateUTC
2013-01-22 00:00:00,33.9,33.4,30.16,East,83,3.0,3.0,98,0.00,,,0.00,Wunderground v.1.12,2013-01-22 08:00:00,
2013-01-22 00:05:00,33.9,33.4,30.15,ENE,74,3.0,3.0,98,0.00,,,0.00,Wunderground v.1.12,2013-01-22 08:05:00,
2013-01-22 00:10:00,34.1,33.6,30.15,East,88,2.0,2.0,98,0.00,,,0.00,Wunderground v.1.12,2013-01-22 08:10:00,
2013-01-22 00:15:00,34.2,33.7,30.15,East,91,2.0,2.0,98,0.00,,,0.00,Wunderground v.1.12,2013-01-22 08:15:00,
2013-01-22 00:20:00,34.2,33.7,30.16,East,91,1.0,1.0,98,0.00,,,0.00,Wunderground v.1.12,2013-01-22 08:20:00,
2013-01-22 00:25:00,34.3,33.8,30.15,East,85,1.0,2.0,98,0.00,,,0.00,Wunderground v.1.12,2013-01-22 08:25:00,
2013-01-22 00:30:00,34.4,33.9,30.15,East,82,2.0,3.0,98,0.00,,,0.00,Wunderground v.1.12,2013-01-22 08:30:00,
2013-01-22 00:35:00,34.4,33.9,30.15,ENE,73,3.0,5.0,98,0.00,,,0.00,Wunderground v.1.12,2013-01-22 08:35:00,
2013-01-22 00:40:00,34.4,33.9,30.15,East,84,3.0,4.0,98,0.00,,,0.00,Wunderground v.1.12,2013-01-22 08:40:00,
2013-01-22 00:45:00,34.4,33.9,30.15,ENE,71,4.0,6.0,98,0.00,,,0.00,Wunderground v.1.12,2013-01-22 08:45:00,
2013-01-22 00:50:00,34.3,33.8,30.15,ENE,63,5.0,5.0,98,0.00,,,0.00,Wunderground v.1.12,2013-01-22 08:50:00,
2013-01-22 00:55:00,34.3,33.8,30.16,ENE,64,5.0,5.0,98,0.00,,,0.00,Wunderground v.1.12,2013-01-22 08:55:00,
2013-01-22 01:00:00,34.2,33.7,30.16,ENE,67,4.0,5.0,98,0.00,,,0.00,Wunderground v.1.12,2013-01-22 09:00:00,
2013-01-22 01:05:00,34.2,33.7,30.16,ENE,71,5.0,5.0,98,0.00,,,0.00,Wunderground v.1.12,2013-01-22 09:05:00,
2013-01-22 01:10:00,34.2,33.7,30.15,ENE,74,5.0,5.0,98,0.00,,,0.00,Wunderground v.1.12,2013-01-22 09:10:00,
2013-01-22 01:20:00,34.3,33.8,30.15,East,85,4.0,4.0,98,0.00,,,0.00,Wunderground v.1.12,2013-01-22 09:20:00,
2013-01-22 01:25:00,34.2,33.7,30.16,East,84,3.0,4.0,98,0.00,,,0.00,Wunderground v.1.12,2013-01-22 09:25:00,
2013-01-22 01:30:00,34.2,33.7,30.15,East,84,3.0,4.0,98,0.00,,,0.00,Wunderground v.1.12,2013-01-22 09:30:00,
2013-01-22 01:35:00,34.2,33.7,30.16,East,97,3.0,3.0,98,0.00,,,0.00,Wunderground v.1.12,2013-01-22 09:35:00,
2013-01-22 01:40:00,34.3,33.8,30.16,East,93,3.0,5.0,98,0.00,,,0.00,Wunderground v.1.12,2013-01-22 09:40:00,
2013-01-22 01:45:00,34.3,33.8,30.16,East,88,2.0,4.0,98,0.00,,,0.00,Wunderground v.1.12,2013-01-22 09:45:00,
2013-01-22 01:50:00,34.3,33.8,30.16,East,86,2.0,3.0,98,0.00,,,0.00,Wunderground v.1.12,2013-01-22 09:50:00,
2013-01-22 01:55:00,34.3,33.8,30.15,East,91,3.0,3.0,98,0.00,,,0.00,Wunderground v.1.12,2013-01-22 09:55:00,
2013-01-22 02:00:00,34.2,33.7,30.15,East,96,3.0,5.0,98,0.00,,,0.00,Wunderground v.1.12,2013-01-22 10:00:00,
2013-01-22 02:05:00,34.2,33.7,30.15,ENE,72,3.0,4.0,98,0.00,,,0.00,Wunderground v.1.12,2013-01-22 10:05:00,
2013-01-22 02:10:00,34.1,33.6,30.15,East,94,3.0,3.0,98,0.00,,,0.00,Wunderground v.1.12,2013-01-22 10:10:00,
2013-01-22 02:15:00,34.1,33.6,30.15,East,101,2.0,2.0,98,0.00,,,0.00,Wunderground v.1.12,2013-01-22 10:15:00,
2013-01-22 02:20:00,34.1,33.6,30.16,East,101,2.0,2.0,98,0.00,,,0.00,Wunderground v.1.12,2013-01-22 10:20:00,
2013-01-22 02:25:00,34.2,33.7,30.16,East,101,1.0,2.0,98,0.00,,,0.00,Wunderground v.1.12,2013-01-22 10:25:00,
2013-01-22 02:30:00,34.3,33.8,30.16,East,101,1.0,1.0,98,0.00,,,0.00,Wunderground v.1.12,2013-01-22 10:30:00,
2013-01-22 02:35:00,34.3,33.8,30.15,East,101,2.0,3.0,98,0.00,,,0.00,Wunderground v.1.12,2013-01-22 10:35:00,
2013-01-22 02:40:00,34.3,33.8,30.15,East,101,1.0,2.0,98,0.00,,,0.00,Wunderground v.1.12,2013-01-22 10:40:00,
2013-01-22 02:45:00,34.2,33.7,30.15,East,96,2.0,2.0,98,0.00,,,0.00,Wunderground v.1.12,2013-01-22 10:45:00,
2013-01-22 02:50:00,34.1,33.6,30.14,East,79,3.0,3.0,98,0.00,,,0.00,Wunderground v.1.12,2013-01-22 10:50:00,
2013-01-22 02:55:00,34.1,33.6,30.14,East,86,2.0,4.0,98,0.00,,,0.00,Wunderground v.1.12,2013-01-22 10:55:00,
2013-01-22 03:00:00,34.0,33.5,30.14,ENE,78,2.0,5.0,98,0.00,,,0.00,Wunderground v.1.12,2013-01-22 11:00:00,
2013-01-22 03:05:00,34.0,33.5,30.14,East,85,2.0,2.0,98,0.00,,,0.00,Wunderground v.1.12,2013-01-22 11:05:00,
2013-01-22 03:10:00,34.1,33.6,30.14,East,85,1.0,1.0,98,0.00,,,0.00,Wunderground v.1.12,2013-01-22 11:10:00,
2013-01-22 03:15:00,34.2,33.7,30.15,East,85,1.0,3.0,98,0.00,,,0.00,Wunderground v.1.12,2013-01-22 11:15:00,
2013-01-22 03:20:00,34.3,33.8,30.15,East,85,1.0,1.0,98,0.00,,,0.00,Wunderground v.1.12,2013-01-22 11:20:00,
2013-01-22 03:25:00,34.3,33.8,30.14,East,85,2.0,2.0,98,0.00,,,0.00,Wunderground v.1.12,2013-01-22 11:25:00,
2013-01-22 03:30:00,34.3,33.8,30.14,East,85,2.0,2.0,98,0.00,,,0.00,Wunderground v.1.12,2013-01-22 11:30:00,
2013-01-22 03:35:00,34.3,33.8,30.14,East,85,2.0,2.0,98,0.00,,,0.00,Wunderground v.1.12,2013-01-22 11:35:00,
2013-01-22 03:40:00,34.2,33.7,30.15,East,85,1.0,1.0,98,0.00,,,0.00,Wunderground v.1.12,2013-01-22 11:40:00,
2013-01-22 03:45:00,34.2,33.7,30.15,East,85,0.0,0.0,98,0.00,,,0.00,Wunderground v.1.12,2013-01-22 11:45:00,
2013-01-22 03:50:00,34.3,33.8,30.15,East,85,1.0,1.0,98,0.00,,,0.00,Wunderground v.1.12,2013-01-22 11:50:00,
2013-01-22 03:55:00,34.2,33.7,30.15,East,85,0.0,0.0,98,0.00,,,0.00,Wunderground v.1.12,2013-01-22 11:55:00,
2013-01-22 04:00:00,34.2,33.7,30.15,East,85,0.0,0.0,98,0.00,,,0.00,Wunderground v.1.12,2013-01-22 12:00:00,
2013-01-22 04:05:00,34.2,33.7,30.15,East,90,0.0,5.0,98,0.00,,,0.00,Wunderground v.1.12,2013-01-22 12:05:00,
2013-01-22 04:10:00,34.3,33.8,30.14,East,85,1.0,1.0,98,0.00,,,0.00,Wunderground v.1.12,2013-01-22 12:10:00,
2013-01-22 04:15:00,34.3,33.8,30.14,East,85,1.0,1.0,98,0.00,,,0.00,Wunderground v.1.12,2013-01-22 12:15:00,
2013-01-22 04:20:00,34.3,33.8,30.14,East,85,0.0,0.0,98,0.00,,,0.00,Wunderground v.1.12,2013-01-22 12:20:00,
2013-01-22 04:25:00,34.3,33.8,30.14,East,85,0.0,0.0,98,0.00,,,0.00,Wunderground v.1.12,2013-01-22 12:25:00,
2013-01-22 04:30:00,34.4,33.9,30.13,East,85,1.0,2.0,98,0.00,,,0.00,Wunderground v.1.12,2013-01-22 12:30:00,
2013-01-22 04:35:00,34.4,33.9,30.13,East,85,2.0,4.0,98,0.00,,,0.00,Wunderground v.1.12,2013-01-22 12:35:00,
2013-01-22 04:40:00,34.3,33.8,30.13,East,85,2.0,2.0,98,0.00,,,0.00,Wunderground v.1.12,2013-01-22 12:40:00,
2013-01-22 04:45:00,34.4,33.9,30.12,East,85,1.0,2.0,98,0.00,,,0.00,Wunderground v.1.12,2013-01-22 12:45:00,
2013-01-22 04:50:00,34.4,33.9,30.13,East,85,1.0,1.0,98,0.00,,,0.00,Wunderground v.1.12,2013-01-22 12:50:00,
2013-01-22 04:55:00,34.5,34.0,30.13,East,85,0.0,0.0,98,0.00,,,0.00,Wunderground v.1.12,2013-01-22 12:55:00,
2013-01-22 05:00:00,34.5,34.0,30.13,East,85,1.0,4.0,98,0.00,,,0.00,Wunderground v.1.12,2013-01-22 13:00:00,
2013-01-22 05:10:00,34.5,34.0,30.13,East,85,1.0,1.0,98,0.00,,,0.00,Wunderground v.1.12,2013-01-22 13:10:00,
2013-01-22 05:15:00,34.5,34.0,30.12,East,85,2.0,2.0,98,0.00,,,0.00,Wunderground v.1.12,2013-01-22 13:15:00,
2013-01-22 05:20:00,34.5,34.0,30.12,ESE,104,3.0,4.0,98,0.00,,,0.00,Wunderground v.1.12,2013-01-22 13:20:00,
2013-01-22 05:25:00,34.4,33.9,30.12,ESE,104,3.0,3.0,98,0.00,,,0.00,Wunderground v.1.12,2013-01-22 13:25:00,
2013-01-22 05:30:00,34.5,34.0,30.11,ESE,105,3.0,3.0,98,0.00,,,0.00,Wunderground v.1.12,2013-01-22 13:30:00,
2013-01-22 05:35:00,34.4,33.9,30.11,East,92,2.0,2.0,98,0.00,,,0.00,Wunderground v.1.12,2013-01-22 13:35:00,
2013-01-22 05:45:00,34.4,33.9,30.12,East,92,1.0,1.0,98,0.00,,,0.00,Wunderground v.1.12,2013-01-22 13:45:00,
2013-01-22 05:50:00,34.4,33.9,30.12,East,92,0.0,1.0,98,0.00,,,0.00,Wunderground v.1.12,2013-01-22 13:50:00,
2013-01-22 05:55:00,34.4,33.9,30.11,East,92,1.0,1.0,98,0.00,,,0.00,Wunderground v.1.12,2013-01-22 13:55:00,
2013-01-22 06:00:00,34.4,33.9,30.12,East,92,1.0,1.0,98,0.00,,,0.00,Wunderground v.1.12,2013-01-22 14:00:00,
2013-01-22 06:05:00,34.4,33.9,30.12,East,92,1.0,1.0,98,0.00,,,0.00,Wunderground v.1.12,2013-01-22 14:05:00,
2013-01-22 06:10:00,34.4,33.9,30.11,ESE,106,1.0,1.0,98,0.00,,,0.00,Wunderground v.1.12,2013-01-22 14:10:00,
2013-01-22 06:15:00,34.4,33.9,30.11,ESE,106,1.0,1.0,98,0.00,,,0.00,Wunderground v.1.12,2013-01-22 14:15:00,
2013-01-22 06:20:00,34.4,33.9,30.11,ESE,106,1.0,1.0,98,0.00,,,0.00,Wunderground v.1.12,2013-01-22 14:20:00,
2013-01-22 06:25:00,34.4,33.9,30.11,East,97,1.0,1.0,98,0.00,,,0.00,Wunderground v.1.12,2013-01-22 14:25:00,
2013-01-22 06:30:00,34.3,33.8,30.11,East,97,1.0,1.0,98,0.00,,,0.00,Wunderground v.1.12,2013-01-22 14:30:00,
2013-01-22 06:35:00,34.3,33.8,30.11,East,97,0.0,0.0,98,0.00,,,0.00,Wunderground v.1.12,2013-01-22 14:35:00,
2013-01-22 06:40:00,34.2,33.7,30.11,East,97,0.0,0.0,98,0.00,,,0.00,Wunderground v.1.12,2013-01-22 14:40:00,
2013-01-22 06:45:00,34.2,33.7,30.11,East,97,0.0,0.0,98,0.00,,,0.00,Wunderground v.1.12,2013-01-22 14:45:00,
2013-01-22 06:50:00,34.1,33.6,30.11,East,97,0.0,0.0,98,0.00,,,0.00,Wunderground v.1.12,2013-01-22 14:50:00,
2013-01-22 06:55:00,34.1,33.6,30.11,East,97,0.0,0.0,98,0.00,,,0.00,Wunderground v.1.12,2013-01-22 14:55:00,
2013-01-22 07:00:00,34.1,33.6,30.10,East,97,0.0,0.0,98,0.00,,,0.00,Wunderground v.1.12,2013-01-22 15:00:00,
2013-01-22 07:05:00,34.1,33.6,30.11,East,97,0.0,2.0,98,0.00,,,0.00,Wunderground v.1.12,2013-01-22 15:05:00,
2013-01-22 07:10:00,33.9,33.4,30.10,East,97,1.0,2.0,98,0.00,,,0.00,Wunderground v.1.12,2013-01-22 15:10:00,
2013-01-22 07:15:00,33.9,33.4,30.10,East,83,2.0,4.0,98,0.00,,,0.00,Wunderground v.1.12,2013-01-22 15:15:00,
2013-01-22 07:20:00,33.9,33.4,30.11,East,82,3.0,3.0,98,0.00,,,0.00,Wunderground v.1.12,2013-01-22 15:20:00,
2013-01-22 07:25:00,33.9,33.4,30.10,East,82,2.0,3.0,98,0.00,,,0.00,Wunderground v.1.12,2013-01-22 15:25:00,
2013-01-22 07:30:00,33.9,33.4,30.10,East,82,2.0,2.0,98,0.00,,,0.00,Wunderground v.1.12,2013-01-22 15:30:00,
2013-01-22 07:35:00,33.9,33.4,30.10,East,82,2.0,2.0,98,0.00,,,0.00,Wunderground v.1.12,2013-01-22 15:35:00,
2013-01-22 07:40:00,33.8,33.3,30.10,East,82,2.0,4.0,98,0.00,,,0.00,Wunderground v.1.12,2013-01-22 15:40:00,
2013-01-22 07:45:00,33.8,33.3,30.10,East,82,3.0,3.0,98,0.00,,,0.00,Wunderground v.1.12,2013-01-22 15:45:00,
2013-01-22 07:50:00,33.7,33.2,30.10,East,82,2.0,2.0,98,0.00,,,0.00,Wunderground v.1.12,2013-01-22 15:50:00,
2013-01-22 08:00:00,33.7,33.2,30.10,East,82,1.0,1.0,98,0.00,,,0.00,Wunderground v.1.12,2013-01-22 16:00:00,
2013-01-22 08:05:00,33.7,33.2,30.10,East,82,0.0,0.0,98,0.00,,,0.00,Wunderground v.1.12,2013-01-22 16:05:00,
2013-01-22 08:10:00,33.7,33.2,30.10,East,82,0.0,0.0,98,0.00,,,0.00,Wunderground v.1.12,2013-01-22 16:10:00,
2013-01-22 08:15:00,33.8,33.3,30.10,East,82,0.0,0.0,98,0.00,,,0.00,Wunderground v.1.12,2013-01-22 16:15:00,
2013-01-22 08:20:00,33.8,33.3,30.10,East,82,0.0,0.0,98,0.00,,,0.00,Wunderground v.1.12,2013-01-22 16:20:00,
2013-01-22 08:25:00,33.8,33.3,30.10,East,82,0.0,0.0,98,0.00,,,0.00,Wunderground v.1.12,2013-01-22 16:25:00,
2013-01-22 08:30:00,33.9,33.4,30.10,East,82,0.0,2.0,98,0.00,,,0.00,Wunderground v.1.12,2013-01-22 16:30:00,
2013-01-22 08:35:00,33.9,33.4,30.10,East,82,1.0,4.0,98,0.00,,,0.00,Wunderground v.1.12,2013-01-22 16:35:00,
2013-01-22 08:40:00,33.7,33.2,30.10,East,82,2.0,4.0,98,0.00,,,0.00,Wunderground v.1.12,2013-01-22 16:40:00,
2013-01-22 08:45:00,33.6,33.1,30.10,NE,50,3.0,3.0,98,0.00,,,0.00,Wunderground v.1.12,2013-01-22 16:45:00,
2013-01-22 08:50:00,33.3,32.8,30.10,NE,56,3.0,3.0,98,0.00,,,0.00,Wunderground v.1.12,2013-01-22 16:50:00,
2013-01-22 08:55:00,33.3,32.8,30.10,NE,50,3.0,3.0,98,0.00,,,0.00,Wunderground v.1.12,2013-01-22 16:55:00,
2013-01-22 09:00:00,33.3,32.8,30.10,NE,52,3.0,3.0,98,0.00,,,0.00,Wunderground v.1.12,2013-01-22 17:00:00,
2013-01-22 09:05:00,33.4,32.9,30.09,NE,45,3.0,5.0,98,0.00,,,0.00,Wunderground v.1.12,2013-01-22 17:05:00,
2013-01-22 09:10:00,33.4,32.9,30.10,ENE,59,2.0,5.0,98,0.00,,,0.00,Wunderground v.1.12,2013-01-22 17:10:00,
2013-01-22 09:15:00,33.1,32.6,30.10,NE,44,2.0,2.0,98,0.00,,,0.00,Wunderground v.1.12,2013-01-22 17:15:00,
2013-01-22 09:20:00,33.0,32.5,30.10,NE,51,2.0,2.0,98,0.00,,,0.00,Wunderground v.1.12,2013-01-22 17:20:00,
2013-01-22 09:25:00,33.0,32.5,30.10,NE,51,2.0,2.0,98,0.00,,,0.00,Wunderground v.1.12,2013-01-22 17:25:00,
2013-01-22 09:30:00,33.1,32.6,30.10,ENE,69,1.0,2.0,98,0.00,,,0.00,Wunderground v.1.12,2013-01-22 17:30:00,
2013-01-22 09:35:00,33.1,32.6,30.10,NE,47,2.0,4.0,98,0.00,,,0.00,Wunderground v.1.12,2013-01-22 17:35:00,
2013-01-22 09:40:00,33.1,32.6,30.10,NE,40,2.0,2.0,98,0.00,,,0.00,Wunderground v.1.12,2013-01-22 17:40:00,
2013-01-22 09:45:00,33.1,32.6,30.10,NE,41,2.0,2.0,98,0.00,,,0.00,Wunderground v.1.12,2013-01-22 17:45:00,
2013-01-22 09:50:00,33.2,32.7,30.10,NE,47,2.0,2.0,98,0.00,,,0.00,Wunderground v.1.12,2013-01-22 17:50:00,
2013-01-22 09:55:00,33.1,32.6,30.10,NE,46,2.0,2.0,98,0.00,,,0.00,Wunderground v.1.12,2013-01-22 17:55:00,
2013-01-22 10:00:00,33.2,32.7,30.10,NE,46,1.0,3.0,98,0.00,,,0.00,Wunderground v.1.12,2013-01-22 18:00:00,
2013-01-22 10:05:00,33.3,32.8,30.10,NE,47,1.0,2.0,98,0.00,,,0.00,Wunderground v.1.12,2013-01-22 18:05:00,
2013-01-22 10:10:00,33.2,32.7,30.11,NE,46,2.0,3.0,98,0.00,,,0.00,Wunderground v.1.12,2013-01-22 18:10:00,
2013-01-22 10:15:00,33.1,32.6,30.10,NE,48,3.0,3.0,98,0.00,,,0.00,Wunderground v.1.12,2013-01-22 18:15:00,
2013-01-22 10:20:00,33.0,32.5,30.10,ENE,75,3.0,4.0,98,0.00,,,0.00,Wunderground v.1.12,2013-01-22 18:20:00,
2013-01-22 10:25:00,33.0,32.5,30.10,ENE,73,3.0,3.0,98,0.00,,,0.00,Wunderground v.1.12,2013-01-22 18:25:00,
2013-01-22 10:30:00,33.0,32.5,30.10,NE,55,3.0,5.0,98,0.00,,,0.00,Wunderground v.1.12,2013-01-22 18:30:00,
2013-01-22 10:35:00,33.1,32.6,30.10,ENE,59,4.0,5.0,98,0.00,,,0.00,Wunderground v.1.12,2013-01-22 18:35:00,
2013-01-22 10:40:00,33.3,32.8,30.10,NE,51,4.0,4.0,98,0.00,,,0.00,Wunderground v.1.12,2013-01-22 18:40:00,
2013-01-22 10:45:00,33.4,32.9,30.09,ENE,66,4.0,4.0,98,0.00,,,0.00,Wunderground v.1.12,2013-01-22 18:45:00,
2013-01-22 10:50:00,33.7,33.2,30.09,ENE,66,2.0,2.0,98,0.00,,,0.00,Wunderground v.1.12,2013-01-22 18:50:00,
2013-01-22 10:55:00,33.8,33.3,30.09,ENE,66,1.0,1.0,98,0.00,,,0.00,Wunderground v.1.12,2013-01-22 18:55:00,
2013-01-22 11:00:00,33.8,33.3,30.09,ENE,66,1.0,1.0,98,0.00,,,0.00,Wunderground v.1.12,2013-01-22 19:00:00,
2013-01-22 11:05:00,34.0,33.5,30.09,ENE,66,1.0,1.0,98,0.00,,,0.00,Wunderground v.1.12,2013-01-22 19:05:00,
2013-01-22 11:10:00,34.2,33.7,30.10,ENE,66,0.0,2.0,98,0.00,,,0.00,Wunderground v.1.12,2013-01-22 19:10:00,
2013-01-22 11:20:00,34.6,34.1,30.09,ENE,66,0.0,0.0,98,0.00,,,0.00,Wunderground v.1.12,2013-01-22 19:20:00,
2013-01-22 11:25:00,34.7,34.2,30.09,ENE,66,0.0,0.0,98,0.00,,,0.00,Wunderground v.1.12,2013-01-22 19:25:00,
2013-01-22 11:30:00,34.6,34.1,30.09,ENE,66,0.0,0.0,98,0.00,,,0.00,Wunderground v.1.12,2013-01-22 19:30:00,
2013-01-22 11:35:00,34.6,34.1,30.09,ENE,66,0.0,0.0,98,0.00,,,0.00,Wunderground v.1.12,2013-01-22 19:35:00,
2013-01-22 11:40:00,34.7,34.2,30.09,ENE,66,0.0,0.0,98,0.00,,,0.00,Wunderground v.1.12,2013-01-22 19:40:00,
2013-01-22 11:45:00,34.8,34.3,30.08,ENE,66,0.0,0.0,98,0.00,,,0.00,Wunderground v.1.12,2013-01-22 19:45:00,
2013-01-22 11:50:00,35.0,34.5,30.08,ENE,66,0.0,0.0,98,0.00,,,0.00,Wunderground v.1.12,2013-01-22 19:50:00,
2013-01-22 11:55:00,35.1,34.6,30.08,ENE,66,0.0,0.0,98,0.00,,,0.00,Wunderground v.1.12,2013-01-22 19:55:00,
2013-01-22 12:00:00,35.1,34.6,30.07,ENE,66,0.0,0.0,98,0.00,,,0.00,Wunderground v.1.12,2013-01-22 20:00:00,
2013-01-22 12:05:00,35.1,34.6,30.07,ENE,66,0.0,0.0,98,0.00,,,0.00,Wunderground v.1.12,2013-01-22 20:05:00,
2013-01-22 12:10:00,35.1,34.6,30.07,ENE,66,1.0,2.0,98,0.00,,,0.00,Wunderground v.1.12,2013-01-22 20:10:00,
2013-01-22 12:15:00,35.3,34.8,30.07,ENE,66,1.0,2.0,98,0.00,,,0.00,Wunderground v.1.12,2013-01-22 20:15:00,
2013-01-22 12:20:00,35.6,35.1,30.07,ENE,66,1.0,3.0,98,0.00,,,0.00,Wunderground v.1.12,2013-01-22 20:20:00,
2013-01-22 12:25:00,35.6,35.1,30.07,ENE,66,1.0,3.0,98,0.00,,,0.00,Wunderground v.1.12,2013-01-22 20:25:00,
2013-01-22 12:30:00,35.5,35.0,30.07,ENE,66,1.0,1.0,98,0.00,,,0.00,Wunderground v.1.12,2013-01-22 20:30:00,
2013-01-22 12:35:00,35.8,35.3,30.07,ENE,66,1.0,1.0,98,0.00,,,0.00,Wunderground v.1.12,2013-01-22 20:35:00,
2013-01-22 12:40:00,35.7,35.2,30.06,ENE,66,0.0,0.0,98,0.00,,,0.00,Wunderground v.1.12,2013-01-22 20:40:00,
2013-01-22 12:45:00,35.6,35.1,30.06,East,84,1.0,1.0,98,0.00,,,0.00,Wunderground v.1.12,2013-01-22 20:45:00,
2013-01-22 12:50:00,35.4,34.9,30.06,East,96,2.0,3.0,98,0.00,,,0.00,Wunderground v.1.12,2013-01-22 20:50:00,
2013-01-22 13:00:00,35.3,34.8,30.05,East,90,2.0,3.0,98,0.00,,,0.00,Wunderground v.1.12,2013-01-22 21:00:00,
2013-01-22 13:05:00,35.3,34.8,30.05,ESE,112,2.0,4.0,98,0.00,,,0.00,Wunderground v.1.12,2013-01-22 21:05:00,
2013-01-22 13:10:00,35.1,34.6,30.05,ESE,114,3.0,4.0,98,0.00,,,0.00,Wunderground v.1.12,2013-01-22 21:10:00,
2013-01-22 13:15:00,35.0,34.5,30.05,ESE,114,3.0,5.0,98,0.00,,,0.00,Wunderground v.1.12,2013-01-22 21:15:00,
2013-01-22 13:20:00,34.8,34.3,30.05,ESE,112,4.0,5.0,98,0.00,,,0.00,Wunderground v.1.12,2013-01-22 21:20:00,
2013-01-22 13:25:00,34.9,34.4,30.04,ESE,110,4.0,7.0,98,0.00,,,0.00,Wunderground v.1.12,2013-01-22 21:25:00,
2013-01-22 13:30:00,35.0,34.5,30.04,SE,125,4.0,5.0,98,0.00,,,0.00,Wunderground v.1.12,2013-01-22 21:30:00,
2013-01-22 13:35:00,35.0,34.2,30.04,ESE,118,4.0,4.0,97,0.00,,,0.00,Wunderground v.1.12,2013-01-22 21:35:00,
2013-01-22 13:40:00,35.0,34.2,30.04,ESE,120,4.0,4.0,97,0.00,,,0.00,Wunderground v.1.12,2013-01-22 21:40:00,
2013-01-22 13:45:00,34.9,34.1,30.03,ESE,119,4.0,4.0,97,0.00,,,0.00,Wunderground v.1.12,2013-01-22 21:45:00,
2013-01-22 13:50:00,35.0,34.2,30.03,ESE,119,3.0,3.0,97,0.00,,,0.00,Wunderground v.1.12,2013-01-22 21:50:00,
2013-01-22 13:55:00,34.9,34.1,30.02,ESE,115,3.0,3.0,97,0.00,,,0.00,Wunderground v.1.12,2013-01-22 21:55:00,
2013-01-22 14:00:00,34.8,34.0,30.03,ESE,111,3.0,3.0,97,0.00,,,0.00,Wunderground v.1.12,2013-01-22 22:00:00,
2013-01-22 14:10:00,34.6,33.8,30.03,SE,138,3.0,3.0,97,0.00,,,0.00,Wunderground v.1.12,2013-01-22 22:10:00,
2013-01-22 14:15:00,34.8,34.0,30.03,SE,137,3.0,3.0,97,0.00,,,0.00,Wunderground v.1.12,2013-01-22 22:15:00,
2013-01-22 14:20:00,34.8,34.0,30.03,ESE,122,3.0,3.0,97,0.00,,,0.00,Wunderground v.1.12,2013-01-22 22:20:00,
2013-01-22 14:25:00,35.0,34.2,30.02,ENE,61,3.0,3.0,97,0.00,,,0.00,Wunderground v.1.12,2013-01-22 22:25:00,
2013-01-22 14:30:00,35.0,34.0,30.01,ENE,68,4.0,4.0,96,0.00,,,0.00,Wunderground v.1.12,2013-01-22 22:30:00,
2013-01-22 14:35:00,35.1,34.1,30.01,SE,135,3.0,6.0,96,0.00,,,0.00,Wunderground v.1.12,2013-01-22 22:35:00,
2013-01-22 14:40:00,35.3,34.3,30.01,ENE,78,3.0,3.0,96,0.00,,,0.00,Wunderground v.1.12,2013-01-22 22:40:00,
2013-01-22 14:45:00,35.5,34.5,30.02,SE,129,2.0,2.0,96,0.00,,,0.00,Wunderground v.1.12,2013-01-22 22:45:00,
2013-01-22 14:50:00,35.5,34.5,30.02,SE,129,1.0,1.0,96,0.00,,,0.00,Wunderground v.1.12,2013-01-22 22:50:00,
2013-01-22 14:55:00,35.5,34.5,30.02,SE,129,0.0,1.0,96,0.00,,,0.00,Wunderground v.1.12,2013-01-22 22:55:00,
2013-01-22 15:00:00,35.6,34.6,30.00,East,79,1.0,3.0,96,0.00,,,0.00,Wunderground v.1.12,2013-01-22 23:00:00,
2013-01-22 15:05:00,35.7,34.7,30.00,ENE,76,2.0,3.0,96,0.00,,,0.00,Wunderground v.1.12,2013-01-22 23:05:00,
2013-01-22 15:10:00,35.8,34.8,30.01,ENE,76,2.0,2.0,96,0.00,,,0.00,Wunderground v.1.12,2013-01-22 23:10:00,
2013-01-22 15:15:00,35.7,34.7,30.00,ENE,76,1.0,1.0,96,0.00,,,0.00,Wunderground v.1.12,2013-01-22 23:15:00,
2013-01-22 15:20:00,35.8,34.8,30.00,ENE,76,0.0,0.0,96,0.00,,,0.00,Wunderground v.1.12,2013-01-22 23:20:00,
2013-01-22 15:25:00,35.9,34.9,30.01,ENE,76,0.0,0.0,96,0.00,,,0.00,Wunderground v.1.12,2013-01-22 23:25:00,
2013-01-22 15:30:00,35.9,34.9,30.01,ENE,76,0.0,0.0,96,0.00,,,0.00,Wunderground v.1.12,2013-01-22 23:30:00,
2013-01-22 15:35:00,35.9,34.9,30.01,ENE,76,0.0,0.0,96,0.00,,,0.00,Wunderground v.1.12,2013-01-22 23:35:00,
2013-01-22 15:45:00,36.0,35.0,29.99,ENE,76,0.0,1.0,96,0.00,,,0.00,Wunderground v.1.12,2013-01-22 23:45:00,
2013-01-22 15:50:00,36.1,35.1,30.00,ENE,68,1.0,1.0,96,0.00,,,0.00,Wunderground v.1.12,2013-01-22 23:50:00,
2013-01-22 15:55:00,36.1,35.1,30.00,ENE,68,1.0,1.0,96,0.00,,,0.00,Wunderground v.1.12,2013-01-22 23:55:00,
2013-01-22 16:00:00,36.1,35.1,29.99,ENE,68,0.0,0.0,96,0.00,,,0.00,Wunderground v.1.12,2013-01-23 00:00:00,
2013-01-22 16:05:00,36.1,35.1,30.00,ENE,68,0.0,3.0,96,0.00,,,0.00,Wunderground v.1.12,2013-01-23 00:05:00,
2013-01-22 16:10:00,36.1,35.1,29.99,ENE,68,1.0,2.0,96,0.00,,,0.00,Wunderground v.1.12,2013-01-23 00:10:00,
2013-01-22 16:15:00,36.0,35.0,29.99,ENE,68,1.0,2.0,96,0.00,,,0.00,Wunderground v.1.12,2013-01-23 00:15:00,
2013-01-22 16:20:00,36.0,35.0,29.99,ENE,68,1.0,1.0,96,0.00,,,0.00,Wunderground v.1.12,2013-01-23 00:20:00,
2013-01-22 16:25:00,36.0,35.0,29.99,ENE,68,0.0,0.0,96,0.00,,,0.00,Wunderground v.1.12,2013-01-23 00:25:00,
2013-01-22 16:30:00,35.9,34.6,29.98,ENE,68,0.0,0.0,95,0.00,,,0.00,Wunderground v.1.12,2013-01-23 00:30:00,
2013-01-22 16:35:00,35.9,34.9,29.98,ENE,68,1.0,3.0,96,0.00,,,0.00,Wunderground v.1.12,2013-01-23 00:35:00,
2013-01-22 16:40:00,35.9,34.6,29.99,ENE,68,0.0,0.0,95,0.00,,,0.00,Wunderground v.1.12,2013-01-23 00:40:00,
2013-01-22 16:45:00,35.8,34.5,29.99,ENE,68,0.0,0.0,95,0.00,,,0.00,Wunderground v.1.12,2013-01-23 00:45:00,
2013-01-22 16:50:00,35.8,34.5,29.99,ENE,68,0.0,0.0,95,0.00,,,0.00,Wunderground v.1.12,2013-01-23 00:50:00,
2013-01-22 16:55:00,35.8,34.5,29.99,ENE,68,1.0,2.0,95,0.00,,,0.00,Wunderground v.1.12,2013-01-23 00:55:00,
2013-01-22 17:00:00,35.7,34.4,29.99,ENE,68,1.0,2.0,95,0.00,,,0.00,Wunderground v.1.12,2013-01-23 01:00:00,
2013-01-22 17:05:00,35.6,34.3,29.99,ENE,68,2.0,4.0,95,0.00,,,0.00,Wunderground v.1.12,2013-01-23 01:05:00,
2013-01-22 17:10:00,35.5,34.2,29.98,ENE,66,3.0,3.0,95,0.00,,,0.00,Wunderground v.1.12,2013-01-23 01:10:00,
2013-01-22 17:15:00,35.4,34.1,29.99,ENE,66,3.0,3.0,95,0.00,,,0.00,Wunderground v.1.12,2013-01-23 01:15:00,
2013-01-22 17:20:00,35.3,34.0,29.99,ENE,67,1.0,1.0,95,0.00,,,0.00,Wunderground v.1.12,2013-01-23 01:20:00,
2013-01-22 17:25:00,35.2,33.9,29.98,ENE,67,1.0,1.0,95,0.00,,,0.00,Wunderground v.1.12,2013-01-23 01:25:00,
2013-01-22 17:30:00,35.1,33.8,29.98,ENE,68,1.0,1.0,95,0.00,,,0.00,Wunderground v.1.12,2013-01-23 01:30:00,
2013-01-22 17:35:00,35.0,33.7,29.97,East,80,2.0,3.0,95,0.00,,,0.00,Wunderground v.1.12,2013-01-23 01:35:00,
2013-01-22 17:40:00,35.1,33.8,29.96,ENE,73,3.0,9.0,95,0.00,,,0.00,Wunderground v.1.12,2013-01-23 01:40:00,
2013-01-22 17:45:00,35.2,33.9,29.97,ENE,78,4.0,4.0,95,0.00,,,0.00,Wunderground v.1.12,2013-01-23 01:45:00,
2013-01-22 17:50:00,35.2,33.9,29.98,ESE,105,4.0,4.0,95,0.00,,,0.00,Wunderground v.1.12,2013-01-23 01:50:00,
2013-01-22 17:55:00,35.4,34.1,29.97,ESE,106,3.0,3.0,95,0.00,,,0.00,Wunderground v.1.12,2013-01-23 01:55:00,
2013-01-22 18:05:00,35.4,34.1,29.98,East,88,3.0,3.0,95,0.00,,,0.00,Wunderground v.1.12,2013-01-23 02:05:00,
2013-01-22 18:10:00,35.4,34.1,29.98,East,88,2.0,2.0,95,0.00,,,0.00,Wunderground v.1.12,2013-01-23 02:10:00,
2013-01-22 18:15:00,35.5,34.2,29.98,East,88,2.0,5.0,95,0.00,,,0.00,Wunderground v.1.12,2013-01-23 02:15:00,
2013-01-22 18:20:00,35.6,34.3,29.97,East,98,3.0,3.0,95,0.00,,,0.00,Wunderground v.1.12,2013-01-23 02:20:00,
2013-01-22 18:30:00,35.8,34.5,29.96,East,93,4.0,4.0,95,0.00,,,0.00,Wunderground v.1.12,2013-01-23 02:30:00,
2013-01-22 18:35:00,35.7,34.4,29.97,East,88,4.0,4.0,95,0.00,,,0.00,Wunderground v.1.12,2013-01-23 02:35:00,
2013-01-22 18:40:00,35.7,34.4,29.97,East,88,2.0,2.0,95,0.00,,,0.00,Wunderground v.1.12,2013-01-23 02:40:00,
2013-01-22 18:45:00,35.6,34.3,29.96,ENE,77,3.0,3.0,95,0.00,,,0.00,Wunderground v.1.12,2013-01-23 02:45:00,
2013-01-22 18:50:00,35.5,34.2,29.96,ENE,73,4.0,5.0,95,0.00,,,0.00,Wunderground v.1.12,2013-01-23 02:50:00,
2013-01-22 18:55:00,35.4,34.1,29.96,ENE,73,4.0,5.0,95,0.00,,,0.00,Wunderground v.1.12,2013-01-23 02:55:00,
2013-01-22 19:05:00,35.2,33.9,29.96,ENE,72,5.0,5.0,95,0.00,,,0.00,Wunderground v.1.12,2013-01-23 03:05:00,
2013-01-22 19:10:00,35.2,33.9,29.96,ENE,72,5.0,5.0,95,0.00,,,0.00,Wunderground v.1.12,2013-01-23 03:10:00,
2013-01-22 19:15:00,35.1,33.8,29.96,ENE,73,4.0,4.0,95,0.00,,,0.00,Wunderground v.1.12,2013-01-23 03:15:00,
2013-01-22 19:20:00,35.0,33.7,29.96,ENE,74,3.0,3.0,95,0.00,,,0.00,Wunderground v.1.12,2013-01-23 03:20:00,
2013-01-22 19:25:00,35.0,33.7,29.95,ENE,74,3.0,7.0,95,0.00,,,0.00,Wunderground v.1.12,2013-01-23 03:25:00,
2013-01-22 19:30:00,35.1,33.8,29.96,ENE,74,4.0,4.0,95,0.00,,,0.00,Wunderground v.1.12,2013-01-23 03:30:00,
2013-01-22 19:35:00,35.1,33.8,29.96,ENE,74,3.0,3.0,95,0.00,,,0.00,Wunderground v.1.12,2013-01-23 03:35:00,
2013-01-22 19:40:00,35.1,33.8,29.96,ENE,74,2.0,2.0,95,0.00,,,0.00,Wunderground v.1.12,2013-01-23 03:40:00,
2013-01-22 19:45:00,35.0,33.7,29.96,ENE,74,2.0,3.0,95,0.00,,,0.00,Wunderground v.1.12,2013-01-23 03:45:00,
2013-01-22 19:50:00,35.1,33.8,29.96,ENE,74,1.0,1.0,95,0.00,,,0.00,Wunderground v.1.12,2013-01-23 03:50:00,
2013-01-22 19:55:00,35.2,33.9,29.96,ENE,74,1.0,1.0,95,0.00,,,0.00,Wunderground v.1.12,2013-01-23 03:55:00,
2013-01-22 20:00:00,35.3,34.0,29.95,ENE,72,1.0,5.0,95,0.00,,,0.00,Wunderground v.1.12,2013-01-23 04:00:00,
2013-01-22 20:05:00,35.3,34.3,29.95,ENE,75,2.0,2.0,96,0.00,,,0.00,Wunderground v.1.12,2013-01-23 04:05:00,
2013-01-22 20:10:00,35.5,34.5,29.95,ENE,76,2.0,2.0,96,0.00,,,0.00,Wunderground v.1.12,2013-01-23 04:10:00,
2013-01-22 20:15:00,35.6,34.6,29.97,ENE,76,1.0,1.0,96,0.00,,,0.00,Wunderground v.1.12,2013-01-23 04:15:00,
2013-01-22 20:20:00,35.7,34.7,29.97,ENE,76,0.0,0.0,96,0.00,,,0.00,Wunderground v.1.12,2013-01-23 04:20:00,
2013-01-22 20:25:00,35.9,34.9,29.96,ENE,76,1.0,3.0,96,0.00,,,0.00,Wunderground v.1.12,2013-01-23 04:25:00,
2013-01-22 20:30:00,36.1,34.8,29.97,ESE,118,2.0,2.0,95,0.00,,,0.00,Wunderground v.1.12,2013-01-23 04:30:00,
2013-01-22 20:35:00,36.3,35.0,29.97,ESE,118,2.0,2.0,95,0.00,,,0.00,Wunderground v.1.12,2013-01-23 04:35:00,
2013-01-22 20:45:00,37.0,36.0,29.96,ESE,118,2.0,2.0,96,0.00,,,0.00,Wunderground v.1.12,2013-01-23 04:45:00,
2013-01-22 20:50:00,37.0,35.7,29.96,ESE,118,1.0,1.0,95,0.00,,,0.00,Wunderground v.1.12,2013-01-23 04:50:00,
2013-01-22 20:55:00,36.8,35.5,29.96,ESE,118,0.0,0.0,95,0.00,,,0.00,Wunderground v.1.12,2013-01-23 04:55:00,
2013-01-22 21:05:00,36.6,35.3,29.95,ESE,118,0.0,0.0,95,0.00,,,0.00,Wunderground v.1.12,2013-01-23 05:05:00,
2013-01-22 21:10:00,36.5,35.2,29.95,East,83,1.0,5.0,95,0.00,,,0.00,Wunderground v.1.12,2013-01-23 05:10:00,
2013-01-22 21:15:00,36.6,35.3,29.94,East,82,2.0,3.0,95,0.00,,,0.00,Wunderground v.1.12,2013-01-23 05:15:00,
2013-01-22 21:20:00,36.6,35.3,29.94,East,81,2.0,3.0,95,0.00,,,0.00,Wunderground v.1.12,2013-01-23 05:20:00,
2013-01-22 21:25:00,36.8,35.5,29.93,ENE,59,3.0,3.0,95,0.00,,,0.00,Wunderground v.1.12,2013-01-23 05:25:00,
2013-01-22 21:30:00,36.3,35.0,29.94,ENE,60,4.0,5.0,95,0.00,,,0.00,Wunderground v.1.12,2013-01-23 05:30:00,
2013-01-22 21:35:00,36.0,34.7,29.94,ENE,77,4.0,4.0,95,0.00,,,0.00,Wunderground v.1.12,2013-01-23 05:35:00,
2013-01-22 21:40:00,36.1,34.8,29.94,East,94,5.0,8.0,95,0.00,,,0.00,Wunderground v.1.12,2013-01-23 05:40:00,
2013-01-22 21:45:00,36.3,35.0,29.93,ENE,67,6.0,6.0,95,0.00,,,0.00,Wunderground v.1.12,2013-01-23 05:45:00,
2013-01-22 21:50:00,36.2,34.9,29.94,East,90,6.0,6.0,95,0.00,,,0.00,Wunderground v.1.12,2013-01-23 05:50:00,
2013-01-22 21:55:00,36.3,35.0,29.93,ENE,68,6.0,6.0,95,0.00,,,0.00,Wunderground v.1.12,2013-01-23 05:55:00,
2013-01-22 22:00:00,36.5,35.2,29.93,ENE,62,5.0,5.0,95,0.00,,,0.00,Wunderground v.1.12,2013-01-23 06:00:00,
2013-01-22 22:05:00,36.6,35.3,29.94,ENE,78,4.0,4.0,95,0.00,,,0.00,Wunderground v.1.12,2013-01-23 06:05:00,
2013-01-22 22:10:00,36.9,35.6,29.94,WSW,239,4.0,4.0,95,0.00,,,0.00,Wunderground v.1.12,2013-01-23 06:10:00,
2013-01-22 22:15:00,37.0,36.0,29.94,WNW,288,2.0,2.0,96,0.00,,,0.00,Wunderground v.1.12,2013-01-23 06:15:00,
2013-01-22 22:20:00,37.0,35.7,29.94,East,80,1.0,2.0,95,0.00,,,0.00,Wunderground v.1.12,2013-01-23 06:20:00,
2013-01-22 22:25:00,36.8,35.5,29.93,ENE,74,3.0,3.0,95,0.00,,,0.00,Wunderground v.1.12,2013-01-23 06:25:00,
2013-01-22 22:30:00,36.7,35.4,29.93,East,87,3.0,3.0,95,0.00,,,0.00,Wunderground v.1.12,2013-01-23 06:30:00,
2013-01-22 22:35:00,36.8,35.5,29.93,East,84,3.0,3.0,95,0.00,,,0.00,Wunderground v.1.12,2013-01-23 06:35:00,
2013-01-22 22:40:00,36.9,35.6,29.93,East,89,3.0,3.0,95,0.00,,,0.00,Wunderground v.1.12,2013-01-23 06:40:00,
2013-01-22 22:45:00,37.0,35.7,29.93,East,88,3.0,3.0,95,0.00,,,0.00,Wunderground v.1.12,2013-01-23 06:45:00,
2013-01-22 22:50:00,37.5,36.5,29.93,NNW,329,2.0,2.0,96,0.00,,,0.00,Wunderground v.1.12,2013-01-23 06:50:00,
2013-01-22 22:55:00,37.8,36.8,29.94,NNW,329,1.0,1.0,96,0.00,,,0.00,Wunderground v.1.12,2013-01-23 06:55:00,
2013-01-22 23:00:00,37.8,36.5,29.94,NE,34,1.0,4.0,95,0.00,,,0.00,Wunderground v.1.12,2013-01-23 07:00:00,
2013-01-22 23:05:00,37.7,36.4,29.95,NE,47,2.0,2.0,95,0.00,,,0.00,Wunderground v.1.12,2013-01-23 07:05:00,
2013-01-22 23:10:00,37.5,36.2,29.95,NE,47,2.0,2.0,95,0.00,,,0.00,Wunderground v.1.12,2013-01-23 07:10:00,
2013-01-22 23:15:00,37.6,36.3,29.95,NE,47,0.0,0.0,95,0.00,,,0.00,Wunderground v.1.12,2013-01-23 07:15:00,
2013-01-22 23:20:00,37.6,36.3,29.94,NE,47,0.0,1.0,95,0.00,,,0.00,Wunderground v.1.12,2013-01-23 07:20:00,
2013-01-22 23:25:00,37.5,36.2,29.94,NE,47,0.0,0.0,95,0.00,,,0.00,Wunderground v.1.12,2013-01-23 07:25:00,
2013-01-22 23:30:00,37.6,36.3,29.95,NE,47,1.0,1.0,95,0.00,,,0.00,Wunderground v.1.12,2013-01-23 07:30:00,
2013-01-22 23:35:00,37.9,36.6,29.95,NE,47,1.0,1.0,95,0.00,,,0.00,Wunderground v.1.12,2013-01-23 07:35:00,
2013-01-22 23:40:00,38.2,36.9,29.95,NE,47,0.0,0.0,95,0.00,,,0.00,Wunderground v.1.12,2013-01-23 07:40:00,
2013-01-22 23:45:00,38.6,37.3,29.95,WNW,287,1.0,2.0,95,0.00,,,0.00,Wunderground v.1.12,2013-01-23 07:45:00,
2013-01-22 23:50:00,38.8,37.5,29.95,WNW,287,1.0,3.0,95,0.00,,,0.00,Wunderground v.1.12,2013-01-23 07:50:00,
2013-01-22 23:55:00,39.0,37.7,29.95,WNW,287,1.0,1.0,95,0.00,,,0.00,Wunderground v.1.12,2013-01-23 07:55:00,